When you browse on this site, cookies collect data to enhance your experience and personalize the content and advertising you see.
Visit our Privacy Policy to learn more. By continuing to use the site, you agree to this use of cookies and data.
  • In Portugal
  • List of Countries
  • For 7 days
  • Water Temperature
  • Weather Map
  • Weather Widgets
  • user-avatar
    Login

    Hourly Weather Sabha

    Today, 10 April, Friday

    Time Temperature Precipitation Wind Pressure Humidity
    00:00 +19°C° 0 mm 5 mps 726 mmHg 31%
    01:00 +19°C° 0 mm 4 mps 726 mmHg 32%
    02:00 +18°C° 0 mm 4 mps 726 mmHg 34%
    03:00 +17°C° 0 mm 4 mps 725 mmHg 35%
    04:00 +17°C° 0 mm 4 mps 725 mmHg 37%
    05:00 +17°C° 0 mm 4 mps 726 mmHg 36%
    06:00 +17°C° 0 mm 4 mps 726 mmHg 35%
    07:00 +17°C° 0 mm 4 mps 727 mmHg 35%
    08:00 +19°C° 0 mm 4 mps 727 mmHg 31%
    09:00 +21°C° 0 mm 4 mps 727 mmHg 27%
    10:00 +23°C° 0 mm 4 mps 727 mmHg 23%
    11:00 +25°C° 0 mm 3 mps 727 mmHg 21%
    12:00 +26°C° 0 mm 2 mps 727 mmHg 20%
    13:00 +25°C° 0 mm 0 mps 726 mmHg 18%
    14:00 +28°C° 0 mm 1 mps 726 mmHg 18%
    15:00 +28°C° 0 mm 2 mps 725 mmHg 17%
    16:00 +28°C° 0 mm 2 mps 724 mmHg 16%
    17:00 +28°C° 0 mm 3 mps 724 mmHg 17%
    18:00 +27°C° 0 mm 4 mps 725 mmHg 19%
    19:00 +26°C° 0 mm 5 mps 725 mmHg 20%
    20:00 +25°C° 0 mm 5 mps 725 mmHg 21%
    21:00 +23°C° 0 mm 5 mps 725 mmHg 23%
    22:00 +22°C° 0 mm 6 mps 726 mmHg 25%
    23:00 +22°C° 0 mm 5 mps 726 mmHg 25%

    Tomorrow, 11 April, Saturday

    Time Temperature Precipitation Wind Pressure Humidity
    00:00 +21°C° 0 mm 5 mps 725 mmHg 26%
    01:00 +20°C° 0 mm 5 mps 725 mmHg 26%
    02:00 +20°C° 0 mm 5 mps 725 mmHg 26%
    03:00 +19°C° 0 mm 5 mps 725 mmHg 26%
    04:00 +17°C° 0 mm 5 mps 725 mmHg 26%
    05:00 +17°C° 0 mm 6 mps 725 mmHg 25%
    06:00 +17°C° 0 mm 6 mps 725 mmHg 25%
    07:00 +17°C° 0 mm 7 mps 726 mmHg 24%
    08:00 +20°C° 0 mm 6 mps 726 mmHg 22%
    09:00 +23°C° 0 mm 6 mps 726 mmHg 20%
    10:00 +26°C° 0 mm 6 mps 727 mmHg 18%
    11:00 +27°C° 0 mm 5 mps 726 mmHg 17%
    12:00 +28°C° 0 mm 4 mps 726 mmHg 16%
    13:00 +30°C° 0 mm 3 mps 726 mmHg 15%
    14:00 +30°C° 0 mm 2 mps 725 mmHg 15%
    15:00 +30°C° 0 mm 1 mps 724 mmHg 15%
    16:00 +29°C° 0 mm 0 mps 724 mmHg 15%
    17:00 +30°C° 0 mm 1 mps 724 mmHg 16%
    18:00 +29°C° 0 mm 2 mps 724 mmHg 17%
    19:00 +28°C° 0 mm 3 mps 724 mmHg 18%
    20:00 +27°C° 0 mm 4 mps 724 mmHg 19%
    21:00 +26°C° 0 mm 5 mps 724 mmHg 20%
    22:00 +25°C° 0 mm 5 mps 725 mmHg 21%
    23:00 +23°C° 0 mm 6 mps 725 mmHg 22%

    Day after tomorrow, 12 April, Sunday

    Time Temperature Precipitation Wind Pressure Humidity
    00:00 +22°C° 0 mm 7 mps 724 mmHg 23%
    01:00 +21°C° 0 mm 8 mps 724 mmHg 25%
    02:00 +21°C° 0 mm 8 mps 724 mmHg 26%
    03:00 +20°C° 0 mm 7 mps 724 mmHg 27%
    04:00 +20°C° 0 mm 7 mps 724 mmHg 28%
    05:00 +20°C° 0 mm 7 mps 724 mmHg 28%
    06:00 +20°C° 0 mm 8 mps 725 mmHg 28%
    07:00 +20°C° 0 mm 8 mps 725 mmHg 28%
    08:00 +22°C° 0 mm 8 mps 725 mmHg 24%
    09:00 +26°C° 0 mm 8 mps 726 mmHg 21%
    10:00 +28°C° 0 mm 8 mps 726 mmHg 17%
    11:00 +30°C° 0 mm 7 mps 725 mmHg 15%
    12:00 +33°C° 0 mm 6 mps 725 mmHg 14%
    13:00 +34°C° 0 mm 5 mps 724 mmHg 12%
    14:00 +35°C° 0 mm 5 mps 724 mmHg 12%
    15:00 +35°C° 0 mm 4 mps 723 mmHg 11%
    16:00 +36°C° 0 mm 3 mps 722 mmHg 11%
    17:00 +34°C° 0 mm 3 mps 722 mmHg 12%
    18:00 +33°C° 0 mm 3 mps 722 mmHg 13%
    19:00 +30°C° 0 mm 2 mps 722 mmHg 14%
    20:00 +29°C° 0 mm 3 mps 722 mmHg 15%
    21:00 +28°C° 0 mm 4 mps 722 mmHg 16%
    22:00 +27°C° 0 mm 5 mps 723 mmHg 17%
    23:00 +26°C° 0 mm 5 mps 723 mmHg 18%

    13 April, Monday

    Time Temperature Precipitation Wind Pressure Humidity
    00:00 +26°C° 0 mm 6 mps 723 mmHg 18%
    01:00 +24°C° 0 mm 6 mps 722 mmHg 19%
    02:00 +23°C° 0 mm 6 mps 722 mmHg 19%
    03:00 +23°C° 0 mm 7 mps 722 mmHg 20%
    04:00 +22°C° 0 mm 8 mps 722 mmHg 20%
    05:00 +22°C° 0 mm 7 mps 722 mmHg 20%
    06:00 +22°C° 0 mm 7 mps 723 mmHg 20%
    07:00 +22°C° 0 mm 7 mps 723 mmHg 20%
    08:00 +26°C° 0 mm 6 mps 723 mmHg 17%
    09:00 +29°C° 0 mm 6 mps 724 mmHg 15%
    10:00 +33°C° 0 mm 5 mps 724 mmHg 12%
    11:00 +34°C° 0 mm 4 mps 724 mmHg 11%
    12:00 +36°C° 0 mm 3 mps 723 mmHg 10%
    13:00 +38°C° 0 mm 2 mps 723 mmHg 9%
    14:00 +38°C° 0 mm 2 mps 722 mmHg 9%
    15:00 +38°C° 0 mm 2 mps 722 mmHg 8%
    16:00 +39°C° 0 mm 2 mps 722 mmHg 8%
    17:00 +37°C° 0 mm 3 mps 722 mmHg 9%
    18:00 +36°C° 0 mm 4 mps 722 mmHg 10%
    19:00 +34°C° 0 mm 4 mps 722 mmHg 11%
    20:00 +33°C° 0 mm 5 mps 722 mmHg 12%
    21:00 +32°C° 0 mm 5 mps 723 mmHg 13%
    22:00 +30°C° 0 mm 5 mps 723 mmHg 15%
    23:00 +29°C° 0 mm 5 mps 723 mmHg 16%

    14 April, Tuesday

    Time Temperature Precipitation Wind Pressure Humidity
    00:00 +28°C° 0 mm 5 mps 723 mmHg 17%
    01:00 +27°C° 0 mm 5 mps 722 mmHg 18%
    02:00 +26°C° 0 mm 5 mps 722 mmHg 18%
    03:00 +26°C° 0 mm 6 mps 722 mmHg 19%
    04:00 +26°C° 0 mm 6 mps 722 mmHg 19%
    05:00 +24°C° 0 mm 7 mps 722 mmHg 19%
    06:00 +24°C° 0 mm 7 mps 723 mmHg 19%
    07:00 +24°C° 0 mm 8 mps 723 mmHg 19%
    08:00 +28°C° 0 mm 8 mps 723 mmHg 16%
    09:00 +32°C° 0 mm 8 mps 723 mmHg 13%
    10:00 +35°C° 0 mm 7 mps 724 mmHg 11%
    11:00 +38°C° 0 mm 7 mps 723 mmHg 9%
    12:00 +40°C° 0 mm 6 mps 723 mmHg 8%
    13:00 +41°C° 0 mm 6 mps 723 mmHg 6%
    14:00 +42°C° 0 mm 6 mps 722 mmHg 6%
    15:00 +42°C° 0 mm 5 mps 722 mmHg 6%
    16:00 +42°C° 0 mm 5 mps 722 mmHg 6%
    17:00 +41°C° 0 mm 5 mps 721 mmHg 6%
    18:00 +39°C° 0 mm 5 mps 721 mmHg 7%
    19:00 +36°C° 0 mm 5 mps 721 mmHg 8%
    20:00 +35°C° 0 mm 5 mps 722 mmHg 8%
    21:00 +34°C° 0 mm 6 mps 722 mmHg 9%
    22:00 +33°C° 0 mm 7 mps 722 mmHg 9%
    23:00 +33°C° 0 mm 7 mps 722 mmHg 10%

    15 April, Wednesday

    Time Temperature Precipitation Wind Pressure Humidity
    00:00 +32°C° 0 mm 8 mps 721 mmHg 10%
    01:00 +32°C° 0 mm 8 mps 721 mmHg 10%
    02:00 +31°C° 0 mm 8 mps 721 mmHg 11%
    03:00 +29°C° 0 mm 7 mps 722 mmHg 11%
    04:00 +28°C° 0 mm 7 mps 722 mmHg 12%
    05:00 +28°C° 0 mm 5 mps 722 mmHg 12%
    06:00 +27°C° 0 mm 3 mps 723 mmHg 13%
    07:00 +27°C° 0 mm 2 mps 724 mmHg 13%
    08:00 +29°C° 0 mm 2 mps 724 mmHg 12%
    09:00 +31°C° 0 mm 3 mps 724 mmHg 10%
    10:00 +34°C° 0 mm 4 mps 724 mmHg 9%
    11:00 +36°C° 0 mm 4 mps 724 mmHg 8%
    12:00 +38°C° 0 mm 4 mps 724 mmHg 7%
    13:00 +41°C° 0 mm 4 mps 724 mmHg 6%
    14:00 +40°C° 0 mm 3 mps 723 mmHg 6%
    15:00 +40°C° 0 mm 2 mps 722 mmHg 5%
    16:00 +41°C° 0 mm 1 mps 722 mmHg 5%
    17:00 +39°C° 0 mm 2 mps 722 mmHg 6%
    18:00 +38°C° 0 mm 3 mps 722 mmHg 7%
    19:00 +37°C° 0 mm 4 mps 722 mmHg 7%
    20:00 +36°C° 0 mm 4 mps 722 mmHg 8%
    21:00 +35°C° 0 mm 4 mps 722 mmHg 8%
    22:00 +34°C° 0 mm 5 mps 723 mmHg 9%
    23:00 +33°C° 0 mm 4 mps 723 mmHg 9%
    Show more